Hurlburt Field, FL

5:04 PM CDT on May 26, 2017 (GMT -0500)
Hurlburt

Weather History for KHRT - July, 2013

Change the Weather History Date:

Wednesday, July 24, 2013

  Actual Average Record
Temperature  
Mean Temperature 82 °F -  
Max Temperature 88 °F 87 °F 95 °F (2012)
Min Temperature 77 °F 73 °F 71 °F (2002)
Cooling Degree Days 18    
Growing Degree Days 32 (Base 50)    
Moisture  
Dew Point 73 °F    
Average Humidity 74    
Maximum Humidity 89    
Minimum Humidity 57    
Precipitation  
Precipitation 0.00 in - - ()
Sea Level Pressure  
Sea Level Pressure 29.92 in    
Wind  
Wind Speed 8 mph (WNW)    
Max Wind Speed 17 mph    
Max Gust Speed 25 mph    
Visibility 10 miles    
Events Rain , Thunderstorm    
Averages and records for this station are not official NWS values.
T = Trace of Precipitation, MM = Missing Value Source: NWS Daily Summary

Daily Weather History Graph

Daily Weather History Graph

Search for Another Location

Airport or City:

Trip Planner

Search our weather history database for the weather conditions in past years. The results will help you decide how hot, cold, wet, or windy it might be!

Date:

Astronomy

Jul. 24, 2013 Rise Set
Actual Time 6:00 AM CDT 7:45 PM CDT
Civil Twilight 5:33 AM CDT 8:12 PM CDT
Nautical Twilight 5:01 AM CDT 8:44 PM CDT
Astronomical Twilight 4:28 AM CDT 9:17 PM CDT
Moon 9:07 PM CDT (7/24) 8:06 AM CDT (7/24)
Length of Visible Light 14h 38m
Length of Day
13h 45m
Waning Gibbous, 94% of the Moon is Illuminated
Jul 24
Waning Gibbous
Jul 29
Last Quarter
Aug 6
New
Aug 14
First Quarter
Aug 20
Full

Hourly Weather History & Observations

Time (CDT) Temp. Heat Index Dew Point Humidity Pressure Visibility Wind Dir Wind Speed Gust Speed Precip Events Conditions
12:33 AM 77.0 °F - 73.4 °F 89% 29.94 in 10.0 mi SSW 5.8 mph - N/A   Scattered Clouds
12:58 AM 77.9 °F - 73.4 °F 86% 29.94 in 10.0 mi SSW 8.1 mph - N/A   Clear
1:53 AM 78.8 °F - 75.2 °F 89% 29.91 in 10.0 mi SSW 8.1 mph - N/A   Mostly Cloudy
1:58 AM 79.7 °F - 75.2 °F 86% 29.92 in 10.0 mi SSW 6.9 mph - N/A   Mostly Cloudy
2:08 AM 80.6 °F 86.2 °F 75.2 °F 84% 29.90 in 10.0 mi SSW 5.8 mph - N/A   Overcast
2:33 AM 80.6 °F 87.1 °F 77.0 °F 89% 29.90 in 10.0 mi West 8.1 mph - N/A   Scattered Clouds
2:58 AM 81.5 °F 88.7 °F 76.5 °F 85% 29.90 in 10.0 mi West 8.1 mph - N/A   Clear
3:58 AM 80.8 °F 87.1 °F 76.1 °F 86% 29.90 in 10.0 mi WNW 5.8 mph - N/A   Mostly Cloudy
4:58 AM 80.8 °F 86.3 °F 74.8 °F 82% 29.91 in 10.0 mi West 8.1 mph - N/A   Clear
5:58 AM 80.4 °F 86.0 °F 75.6 °F 85% 29.94 in 10.0 mi WNW 8.1 mph - N/A   Mostly Cloudy
6:50 AM 80.6 °F 86.2 °F 75.2 °F 84% 29.92 in 10.0 mi WNW 9.2 mph - N/A   Light Drizzle
6:58 AM 80.6 °F 86.0 °F 74.8 °F 83% 29.93 in 10.0 mi WNW 11.5 mph 17.3 mph 0.00 in   Light Drizzle
7:00 AM 80.6 °F 86.2 °F 75.2 °F 84% 29.92 in 10.0 mi WNW 9.2 mph - N/A   Clear
7:58 AM 81.9 °F 88.2 °F 74.8 °F 79% 29.93 in 10.0 mi WNW 10.4 mph - 0.00 in   Clear
8:58 AM 82.9 °F 89.9 °F 74.7 °F 76% 29.94 in 10.0 mi WNW 11.5 mph - N/A   Partly Cloudy
9:58 AM 84.2 °F 91.6 °F 74.3 °F 72% 29.95 in 10.0 mi WNW 11.5 mph - N/A   Partly Cloudy
10:53 AM 84.2 °F 92.3 °F 75.2 °F 74% 29.94 in 10.0 mi NW 12.7 mph - N/A   Mostly Cloudy
10:58 AM 84.9 °F 92.9 °F 74.7 °F 71% 29.95 in 10.0 mi WNW 11.5 mph - N/A   Mostly Cloudy
11:28 AM 86.0 °F 95.1 °F 75.2 °F 70% 29.93 in 10.0 mi West 11.5 mph - N/A   Mostly Cloudy
11:33 AM 86.0 °F 95.1 °F 75.2 °F 70% 29.93 in 10.0 mi West 10.4 mph - N/A   Mostly Cloudy
11:43 AM 87.8 °F 97.6 °F 75.2 °F 66% 29.93 in 10.0 mi West 9.2 mph - N/A   Mostly Cloudy
11:58 AM 87.1 °F 95.9 °F 74.7 °F 66% 29.94 in 10.0 mi WNW 12.7 mph - N/A   Mostly Cloudy
12:18 PM 87.8 °F 97.6 °F 75.2 °F 66% 29.93 in 10.0 mi WSW 11.5 mph 18.4 mph N/A   Mostly Cloudy
12:33 PM 86.0 °F 95.1 °F 75.2 °F 70% 29.92 in 10.0 mi West 11.5 mph - N/A   Mostly Cloudy
12:48 PM 86.0 °F 95.1 °F 75.2 °F 70% 29.92 in 10.0 mi West 8.1 mph - N/A   Overcast
12:53 PM 86.0 °F 95.1 °F 75.2 °F 70% 29.92 in 10.0 mi West 9.2 mph - N/A   Overcast
12:58 PM 86.0 °F 95.1 °F 75.2 °F 70% 29.92 in 10.0 mi West 12.7 mph - N/A   Overcast
1:13 PM 86.0 °F 95.1 °F 75.2 °F 70% 29.90 in 10.0 mi WNW 12.7 mph - N/A Rain , Thunderstorm Light Rain
1:23 PM 86.0 °F 95.1 °F 75.2 °F 70% 29.90 in 10.0 mi West 6.9 mph - N/A Rain Light Rain
1:31 PM 86.0 °F 95.1 °F 75.2 °F 70% 29.91 in 10.0 mi West 8.1 mph - N/A   Mostly Cloudy
1:58 PM 85.3 °F 94.2 °F 75.2 °F 72% 29.91 in 10.0 mi WNW 9.2 mph - 0.00 in   Scattered Clouds
2:58 PM 84.6 °F 94.3 °F 76.5 °F 77% 29.88 in 10.0 mi West 13.8 mph 19.6 mph N/A   Scattered Clouds
3:58 PM 85.6 °F 95.9 °F 76.6 °F 74% 29.88 in 10.0 mi West 6.9 mph - N/A   Scattered Clouds
4:58 PM 88.0 °F 93.8 °F 71.1 °F 57% 29.88 in 10.0 mi NW 9.2 mph - N/A   Scattered Clouds
5:58 PM 85.6 °F 90.8 °F 70.9 °F 61% 29.89 in 10.0 mi NNW 6.9 mph - N/A   Scattered Clouds
6:58 PM 84.2 °F 88.1 °F 69.6 °F 61% 29.90 in 10.0 mi NNW 4.6 mph - N/A   Scattered Clouds
7:58 PM 82.8 °F 87.2 °F 70.7 °F 67% 29.91 in 10.0 mi NW 3.5 mph - N/A   Overcast
8:16 PM 82.4 °F 87.2 °F 71.6 °F 70% 29.91 in 10.0 mi NE 3.5 mph - N/A   Light Drizzle
8:20 PM 80.6 °F 84.6 °F 71.6 °F 74% 29.91 in 10.0 mi NNE 3.5 mph - N/A   Overcast
8:53 PM 80.6 °F 84.6 °F 71.6 °F 74% 29.91 in 10.0 mi Calm Calm - N/A Rain Light Rain
8:58 PM 80.4 °F 83.9 °F 70.7 °F 72% 29.92 in 10.0 mi Calm Calm - 0.00 in Rain Light Rain
9:03 PM 80.6 °F 83.9 °F 69.8 °F 70% 29.91 in 10.0 mi Calm Calm - N/A   Scattered Clouds
9:09 PM 80.6 °F 83.9 °F 69.8 °F 70% 29.91 in 10.0 mi Calm Calm - N/A   Light Drizzle
9:19 PM 80.6 °F 83.9 °F 69.8 °F 70% 29.91 in 10.0 mi Calm Calm - N/A   Mostly Cloudy
9:27 PM 80.6 °F 84.6 °F 71.6 °F 74% 29.91 in 10.0 mi North 2.3 mph - N/A Rain Light Rain
9:36 PM 78.8 °F - 71.6 °F 78% 29.91 in 10.0 mi NNW 2.3 mph - N/A   Scattered Clouds
9:58 PM 78.4 °F - 71.6 °F 79% 29.91 in 10.0 mi Variable 1.2 mph - 0.00 in   Clear
10:04 PM 78.8 °F - 71.6 °F 78% 29.91 in 10.0 mi WNW 3.5 mph - N/A Rain Light Rain
10:13 PM 80.6 °F 83.9 °F 69.8 °F 70% 29.91 in 10.0 mi NW 2.3 mph - N/A   Clear
10:58 PM 78.8 °F - 70.3 °F 75% 29.92 in 10.0 mi NW 2.3 mph - 0.00 in   Overcast
11:26 PM 80.6 °F 83.9 °F 69.8 °F 70% 29.92 in 10.0 mi WNW 17.3 mph 21.9 mph N/A Rain Light Rain
11:35 PM 78.8 °F - 68.0 °F 69% 29.92 in 10.0 mi NW 12.7 mph 25.3 mph N/A   Mostly Cloudy
11:49 PM 77.0 °F - 66.2 °F 69% 29.91 in 10.0 mi NW 13.8 mph - N/A Rain Light Rain
11:58 PM 77.2 °F - 67.5 °F 72% 29.91 in 10.0 mi NW 17.3 mph 20.7 mph 0.00 in Rain Light Rain